Location: Caltech
(34.1382°N, 118.1253°W)
Time: 04:58:08
(UTC-07:00)

NOAA 19 - Visible Passes

Search period start: 28 September 2016 00:00
Search period end: 08 October 2016 00:00
Orbit: 843 x 861 km, 99.1° (Epoch: 28 September)

Date Brightness Start Highest point End Pass type
(mag) Time Alt. Az. Time Alt. Az. Time Alt. Az.
28 Sep 7.6 03:06:52 10° NE 03:08:35 18° NE 03:08:35 18° NE visible
28 Sep 6.3 04:47:10 10° N 04:50:36 29° NW 04:50:36 29° NW visible
29 Sep 7.9 02:55:55 10° NE 02:56:55 14° NE 02:56:55 14° NE visible
29 Sep 6.2 04:35:34 10° N 04:38:56 33° NNW 04:38:56 33° NNW visible
30 Sep 8.2 02:45:13 10° ENE 02:45:15 10° ENE 02:45:15 10° ENE visible
30 Sep 6.3 04:24:02 10° N 04:27:17 34° NNW 04:27:17 34° NNW visible
01 Oct 6.4 04:12:33 10° N 04:15:37 34° N 04:15:37 34° N visible
02 Oct 6.6 04:01:08 10° NNE 04:03:57 31° NNE 04:03:57 31° NNE visible
02 Oct 7.2 05:45:25 10° NW 05:45:58 10° NW 05:45:58 10° NW visible
03 Oct 6.9 03:49:45 10° NNE 03:52:17 28° NNE 03:52:17 28° NNE visible
03 Oct 7.0 05:32:36 10° NNW 05:34:19 13° NW 05:34:19 13° NW visible
04 Oct 7.2 03:38:27 10° NNE 03:40:37 24° NNE 03:40:37 24° NNE visible
04 Oct 6.9 05:20:29 10° NNW 05:22:38 16° NW 05:22:38 16° NW visible
05 Oct 7.5 03:27:12 10° NNE 03:28:57 20° NE 03:28:57 20° NE visible
05 Oct 6.8 05:08:35 10° NNW 05:10:58 19° NW 05:10:58 19° NW visible
06 Oct 7.7 03:16:04 10° NE 03:17:16 16° NE 03:17:16 16° NE visible
06 Oct 6.7 04:56:50 10° N 04:59:18 22° NNW 04:59:18 22° NNW visible
07 Oct 8.0 03:05:01 10° NE 03:05:36 12° NE 03:05:36 12° NE visible
07 Oct 6.7 04:45:10 10° N 04:47:37 24° NNW 04:47:37 24° NNW visible
